Wind_Speed
32 33 33 33 33 32 32 33 33 33 34 35 35 35 36 37 37 37 37 38 39 40 39 40 40 40 40 40 41 43 45 46 46 47 47 48 49 48 48 47 46 46 45 44
33 33 33 32 32 32 32 33 33 34 34 35 34 35 36 36 36 36 37 37 38 40 40 40 40 40 40 40 40 42 45 46 47 48 48 48 49 49 48 48 48 47 46 46
34 34 33 33 32 32 33 34 34 34 35 34 35 34 34 34 35 35 35 36 37 39 40 41 41 40 40 40 40 41 43 45 47 48 48 49 49 50 49 48 47 47 46 46
34 34 33 33 32 33 33 33 34 34 35 35 34 34 32 33 33 33 33 34 36 38 39 39 40 40 39 40 40 40 42 45 46 48 49 50 50 49 49 49 49 48 46 46
33 33 33 32 32 33 33 33 33 33 33 34 34 35 31 30 31 32 33 34 34 37 38 39 39 39 39 39 40 40 42 44 45 47 49 49 51 50 49 50 51 50 48 47
33 33 33 32 32 32 32 31 32 32 32 33 33 34 33 30 30 30 32 33 34 35 37 39 39 40 40 40 41 41 41 42 44 46 48 49 50 50 49 50 51 51 50 49
33 32 32 31 31 30 30 30 31 31 31 32 31 33 33 31 30 30 30 32 33 35 37 38 39 40 40 41 41 41 42 43 44 45 47 50 50 50 50 49 51 51 51 50
33 31 30 30 29 29 28 28 29 30 31 30 28 30 31 31 30 30 30 30 32 34 35 36 38 40 41 41 40 41 42 42 44 45 47 50 51 52 52 52 52 51 52 52
32 30 29 29 28 28 28 27 28 30 30 30 29 27 29 29 29 29 30 31 32 34 35 36 38 39 40 41 40 40 41 41 43 45 46 49 51 52 53 53 52 52 51 52
31 30 28 28 28 28 28 28 28 28 29 29 30 29 28 28 28 28 29 31 33 34 35 36 37 39 40 41 42 41 41 41 42 44 46 49 50 52 52 54 53 53 53 53
31 30 28 28 27 27 27 28 28 29 29 30 30 28 28 28 28 28 28 30 32 33 33 34 36 37 39 41 42 43 43 43 43 44 46 47 49 51 53 53 55 55 54 54
31 31 30 29 28 28 27 28 28 29 29 29 30 29 27 28 28 29 29 30 31 32 33 33 35 36 38 39 41 43 44 44 43 43 44 46 47 49 52 54 54 55 55 54
32 32 32 30 29 28 27 28 29 29 30 29 28 27 27 27 28 29 30 30 30 31 32 33 34 35 36 38 40 42 43 44 44 44 43 45 45 47 49 53 54 54 53 54
32 32 31 30 30 30 29 29 29 30 30 30 29 28 26 27 28 29 29 29 29 29 30 31 33 34 35 36 38 40 41 42 43 44 44 44 45 46 47 50 52 54 52 52
32 32 31 31 31 31 30 29 29 30 29 29 29 29 28 29 29 29 29 30 30 30 31 31 32 33 34 35 37 39 40 41 43 44 44 44 46 46 47 48 50 52 53 52
33 32 32 31 31 31 31 30 29 29 29 30 29 29 29 29 30 30 30 30 31 30 31 32 32 34 35 35 36 37 40 40 42 43 44 45 45 46 47 48 48 50 51 51
33 33 32 31 31 32 31 30 30 29 29 30 29 29 30 31 30 30 30 30 30 30 30 31 32 33 34 35 36 37 38 40 42 43 43 44 45 45 46 46 47 49 50 51
32 32 33 33 32 32 31 30 30 30 29 29 29 29 29 30 31 31 30 30 30 30 30 31 32 33 33 34 35 36 37 38 41 42 43 44 44 45 46 47 47 48 49 49
31 32 33 33 33 33 31 30 30 30 29 29 30 29 29 30 31 31 31 31 31 30 30 30 31 32 33 33 34 35 36 37 39 41 42 43 44 45 45 47 47 48 50 51
31 32 33 33 34 33 32 31 31 32 30 30 31 30 29 29 29 29 30 31 31 31 31 30 30 31 33 34 34 35 36 37 38 39 41 42 43 44 46 47 48 49 50 51
32 33 33 33 33 33 32 31 31 32 32 31 31 31 30 29 29 28 29 29 30 29 30 30 30 31 32 34 35 35 35 36 38 38 39 41 42 43 45 46 47 49 51 52
33 33 33 33 34 33 32 32 32 32 32 32 32 31 30 30 29 28 28 28 28 29 29 29 30 31 32 33 35 35 36 36 37 38 39 40 42 43 43 45 46 48 49 51
33 33 34 34 33 33 33 32 33 33 33 32 31 31 31 30 29 28 28 28 28 28 29 30 31 31 32 33 34 34 34 35 36 37 38 39 41 42 43 43 44 45 47 49
33 33 33 33 33 32 33 33 33 33 33 32 31 31 31 30 29 28 28 28 29 29 29 29 30 31 32 33 33 33 33 34 34 35 37 38 39 40 41 41 42 43 45 47
32 32 32 32 32 32 32 33 33 33 32 32 31 30 30 30 29 28 27 28 28 29 29 29 29 29 30 32 32 32 32 33 33 34 35 36 37 38 39 40 41 41 42 43
31 31 32 32 32 32 31 32 32 32 31 30 30 30 29 29 29 28 28 28 28 28 28 29 29 29 29 30 30 30 31 32 33 34 35 35 36 37 37 38 39 40 41 41
Wind_Direction
299 298 297 296 294 292 290 287 283 281 281 278 275 273 272 271 269 266 262 257 253 249 248 247 248 247 248 248 247 244 243 242 241 239 238 237 237 236 235 237 237 239 239 239
299 298 299 295 293 291 292 289 285 281 281 281 278 275 273 271 269 266 263 259 254 249 248 247 247 248 247 247 246 244 243 243 241 239 237 237 237 236 235 236 237 236 237 238
300 300 299 296 293 290 291 292 288 283 280 280 280 277 274 271 269 266 262 258 255 251 249 249 247 248 248 247 246 245 243 243 241 240 237 235 236 235 236 235 235 236 237 239
301 301 298 295 293 291 291 293 291 286 282 280 281 281 275 272 268 266 263 258 254 252 250 249 248 248 248 247 246 246 245 244 242 240 238 236 236 236 236 236 236 236 237 239
302 301 298 294 293 292 293 294 292 290 285 282 280 280 279 274 269 267 265 261 255 253 251 250 249 248 248 247 246 245 245 244 243 241 240 237 237 237 237 237 236 236 236 238
303 302 299 295 294 292 295 294 294 292 289 284 282 281 278 275 272 270 265 262 259 255 253 251 250 249 248 247 246 245 246 246 245 243 241 238 237 237 238 238 237 237 237 238
305 304 302 298 295 293 297 296 295 294 292 289 287 284 281 277 274 271 267 262 260 259 256 253 251 249 248 248 246 246 246 246 245 244 242 239 237 237 238 237 238 237 237 238
309 307 303 299 298 297 299 298 297 296 296 293 291 288 285 279 275 272 267 263 262 260 258 255 252 250 249 249 249 248 247 247 245 245 243 240 239 238 238 238 238 238 239 239
312 309 305 301 300 299 299 299 298 296 295 295 292 291 286 280 276 274 268 265 264 262 261 258 255 252 250 249 249 250 248 247 246 244 243 241 240 239 238 238 238 239 240 242
313 311 308 305 302 299 297 298 299 300 298 297 294 291 289 283 280 277 271 269 267 264 263 261 257 253 251 250 249 249 249 249 249 247 244 242 241 240 239 239 239 239 241 243
311 311 310 307 305 302 300 298 297 297 298 296 296 294 291 287 281 278 277 274 269 267 265 262 258 255 252 251 250 249 249 250 249 248 246 243 242 242 241 240 240 241 242 243
313 311 309 307 305 302 300 299 296 297 298 296 294 293 292 288 282 279 277 274 270 269 267 263 259 257 255 253 251 251 250 250 248 247 245 243 244 244 242 241 242 242 242 243
313 313 311 308 306 303 301 300 296 295 294 293 292 293 291 288 284 281 277 275 274 270 266 263 260 258 256 254 253 251 251 250 248 247 245 244 245 244 243 241 241 242 244 243
312 312 311 309 306 304 301 301 298 295 295 293 290 289 288 286 284 282 278 275 275 272 268 263 259 257 257 256 253 252 252 251 249 247 246 246 246 245 244 243 242 242 243 244
311 311 310 308 306 304 301 300 299 295 294 294 292 289 288 286 284 282 279 275 273 272 269 265 260 258 258 257 255 252 251 251 249 247 247 246 245 245 244 243 243 243 243 244
311 310 310 308 306 304 302 301 299 297 295 294 293 290 288 287 285 282 279 278 276 273 269 265 263 261 260 258 256 254 253 252 251 249 249 247 246 245 244 244 244 243 242 243
312 310 310 309 308 305 304 304 299 298 296 294 294 293 288 285 285 283 281 280 279 276 272 268 266 265 262 259 257 256 255 253 251 249 249 249 248 247 245 245 245 244 243 243
314 314 312 310 309 307 307 305 302 298 296 294 294 294 290 286 284 283 282 281 281 279 275 270 268 267 265 262 260 259 258 256 253 251 250 250 249 247 246 246 245 243 242 243
315 315 314 313 311 309 308 307 304 300 297 295 294 293 292 289 284 282 280 280 281 281 277 275 272 268 266 264 263 262 260 258 256 253 252 251 250 248 247 246 245 244 243 243
314 314 314 314 312 312 311 308 304 301 298 297 294 293 293 291 287 284 280 279 279 280 279 276 273 270 268 266 266 264 261 260 258 257 255 252 252 251 249 247 246 245 245 244
314 314 314 313 312 312 313 310 306 302 301 298 295 293 291 291 290 287 282 279 278 279 279 278 275 272 269 268 267 266 264 262 260 258 257 254 253 252 250 248 247 246 246 245
313 313 314 313 313 314 313 310 307 305 302 298 295 293 292 292 290 287 284 281 279 278 279 279 276 274 272 270 268 267 266 264 262 260 259 256 254 252 251 249 248 247 246 246
311 311 311 312 313 314 312 310 307 306 304 300 297 293 291 291 289 286 282 281 281 280 281 279 277 275 273 272 271 268 267 265 264 263 261 259 255 253 251 250 249 248 247 246
309 309 309 310 312 312 311 310 308 307 304 301 297 295 292 290 289 286 282 281 280 280 282 282 279 276 274 273 272 269 267 266 265 264 263 260 258 256 254 252 250 249 248 248
310 309 309 310 312 311 311 311 311 309 306 302 298 296 293 290 288 286 284 281 280 281 282 282 281 278 277 275 273 271 268 266 266 265 264 262 259 258 255 254 252 251 250 249
309 310 311 312 312 312 313 313 313 312 309 304 300 296 294 291 289 287 286 284 283 283 284 283 283 283 280 277 275 272 269 267 266 264 263 262 260 259 257 255 255 254 252 252
Height
5701 5699 5695 5691 5687 5684 5681 5678 5677 5675 5672 5670 5668 5667 5665 5664 5663 5663 5663 5665 5666 5668 5671 5674 5677 5679 5681 5684 5686 5688 5691 5694 5698 5702 5706 5710 5715 5719 5724 5728 5733 5737 5741 5745
5693 5689 5686 5681 5677 5674 5671 5669 5667 5665 5662 5659 5657 5656 5655 5653 5652 5651 5652 5653 5655 5657 5660 5663 5666 5668 5670 5673 5674 5677 5679 5683 5687 5690 5695 5699 5704 5708 5713 5717 5721 5726 5730 5734
5683 5680 5675 5672 5668 5665 5662 5659 5657 5655 5652 5648 5646 5645 5644 5642 5641 5640 5641 5642 5644 5646 5649 5652 5655 5657 5659 5662 5664 5666 5668 5672 5675 5679 5683 5687 5692 5697 5701 5706 5710 5715 5719 5724
5674 5670 5666 5662 5659 5656 5653 5650 5647 5643 5640 5638 5636 5633 5635 5632 5631 5630 5631 5632 5633 5636 5638 5641 5644 5646 5648 5651 5654 5656 5658 5661 5664 5668 5672 5676 5681 5686 5691 5695 5699 5704 5708 5713
5665 5661 5657 5653 5650 5646 5643 5640 5637 5634 5631 5629 5626 5623 5625 5622 5622 5622 5622 5622 5624 5626 5627 5630 5633 5636 5638 5640 5643 5645 5647 5650 5653 5656 5660 5665 5670 5674 5679 5684 5688 5693 5698 5702
5657 5652 5647 5644 5640 5636 5633 5631 5627 5624 5621 5619 5617 5614 5613 5612 5613 5613 5613 5613 5614 5615 5617 5620 5622 5625 5628 5630 5632 5634 5637 5639 5642 5645 5649 5653 5658 5663 5667 5672 5677 5682 5687 5692
5649 5644 5638 5634 5631 5628 5625 5622 5618 5614 5611 5609 5609 5605 5605 5604 5604 5603 5604 5604 5605 5605 5607 5609 5612 5614 5617 5619 5621 5624 5626 5629 5631 5634 5637 5642 5647 5651 5656 5661 5666 5671 5676 5680
5640 5637 5631 5626 5623 5620 5617 5614 5611 5607 5603 5602 5600 5597 5598 5596 5595 5594 5594 5595 5595 5596 5597 5599 5601 5603 5606 5608 5610 5613 5615 5617 5620 5623 5626 5631 5636 5640 5645 5649 5654 5659 5664 5669
5631 5629 5624 5619 5615 5612 5609 5606 5604 5600 5596 5594 5592 5591 5590 5588 5587 5586 5585 5586 5586 5586 5587 5589 5590 5593 5595 5597 5600 5601 5604 5606 5609 5612 5615 5620 5624 5629 5633 5638 5643 5648 5652 5656
5624 5621 5618 5613 5609 5606 5603 5600 5597 5592 5588 5585 5584 5583 5582 5580 5579 5578 5577 5577 5577 5577 5578 5579 5580 5582 5584 5587 5589 5591 5593 5595 5597 5600 5604 5608 5612 5617 5621 5626 5631 5635 5640 5644
5618 5615 5611 5607 5603 5599 5596 5593 5589 5585 5582 5579 5576 5578 5575 5573 5571 5570 5569 5568 5568 5568 5569 5570 5571 5572 5574 5576 5578 5580 5582 5585 5587 5590 5593 5597 5601 5605 5609 5613 5618 5623 5628 5632
5612 5608 5604 5601 5597 5592 5589 5586 5583 5580 5576 5572 5569 5572 5567 5565 5563 5562 5561 5560 5559 5559 5560 5560 5561 5562 5563 5565 5567 5569 5571 5573 5576 5579 5581 5585 5588 5592 5596 5601 5605 5610 5615 5619
5605 5601 5597 5594 5592 5587 5583 5579 5576 5572 5569 5565 5563 5564 5560 5557 5555 5554 5553 5552 5551 5551 5551 5551 5551 5552 5553 5555 5556 5558 5560 5562 5564 5567 5570 5573 5576 5580 5583 5588 5592 5597 5601 5606
5598 5595 5591 5588 5583 5578 5575 5572 5568 5564 5561 5558 5556 5555 5553 5550 5548 5546 5544 5543 5542 5542 5542 5542 5542 5543 5543 5544 5545 5547 5549 5551 5553 5555 5558 5561 5564 5568 5571 5575 5579 5583 5587 5592
5592 5588 5584 5580 5576 5571 5568 5565 5561 5557 5554 5551 5549 5547 5545 5542 5540 5538 5536 5535 5534 5533 5533 5532 5533 5533 5533 5534 5535 5536 5538 5540 5541 5544 5546 5550 5553 5556 5559 5563 5567 5570 5574 5579
5584 5580 5577 5573 5568 5564 5560 5557 5553 5550 5547 5543 5541 5539 5537 5534 5531 5529 5528 5526 5525 5524 5524 5523 5523 5523 5523 5524 5525 5526 5527 5529 5530 5532 5534 5537 5540 5543 5547 5550 5554 5558 5562 5566
5577 5573 5568 5565 5561 5556 5553 5550 5546 5542 5539 5536 5533 5532 5528 5526 5523 5521 5519 5517 5516 5515 5514 5514 5513 5513 5513 5514 5514 5515 5516 5518 5519 5521 5523 5526 5528 5531 5534 5538 5541 5545 5549 5553
5570 5565 5560 5556 5553 5548 5548 5541 5537 5534 5531 5528 5525 5522 5519 5517 5514 5512 5510 5508 5507 5506 5505 5504 5504 5503 5503 5503 5504 5505 5506 5507 5508 5510 5512 5514 5516 5519 5522 5525 5528 5533 5536 5540
5563 5558 5553 5548 5543 5540 5538 5533 5529 5525 5524 5520 5517 5514 5511 5508 5506 5504 5502 5500 5498 5497 5496 5495 5494 5494 5493 5493 5493 5494 5495 5496 5497 5498 5500 5502 5504 5507 5509 5512 5516 5519 5523 5527
5556 5551 5547 5541 5535 5532 5531 5525 5520 5517 5515 5512 5508 5504 5502 5499 5497 5496 5493 5491 5489 5488 5486 5485 5485 5484 5483 5483 5483 5484 5484 5485 5486 5487 5488 5490 5492 5494 5497 5499 5503 5506 5510 5514
5548 5544 5539 5533 5527 5524 5522 5516 5512 5510 5507 5503 5499 5496 5493 5490 5488 5486 5483 5482 5480 5479 5477 5476 5475 5474 5474 5473 5473 5473 5473 5474 5474 5475 5476 5478 5480 5482 5484 5487 5490 5493 5497 5501
5540 5536 5531 5526 5520 5519 5513 5508 5505 5501 5497 5493 5490 5487 5484 5481 5479 5476 5474 5472 5471 5470 5468 5467 5466 5465 5464 5463 5463 5462 5463 5463 5463 5464 5465 5466 5467 5469 5471 5474 5477 5480 5483 5487
5533 5529 5523 5519 5517 5511 5505 5500 5496 5492 5488 5484 5480 5478 5475 5472 5470 5468 5466 5464 5462 5461 5459 5458 5456 5455 5454 5453 5452 5452 5452 5452 5452 5452 5453 5454 5455 5456 5458 5461 5464 5467 5470 5473
5525 5520 5516 5511 5508 5503 5497 5492 5488 5483 5479 5475 5472 5469 5466 5463 5461 5459 5457 5455 5453 5452 5450 5448 5446 5445 5444 5443 5442 5441 5441 5441 5441 5441 5441 5442 5443 5444 5446 5449 5451 5454 5456 5460
5517 5512 5507 5503 5499 5494 5490 5484 5480 5475 5470 5466 5463 5460 5456 5454 5452 5450 5448 5446 5444 5443 5441 5439 5437 5435 5434 5433 5432 5431 5431 5430 5430 5430 5430 5431 5432 5433 5435 5437 5439 5441 5444 5446
5509 5504 5499 5496 5491 5486 5482 5477 5472 5467 5462 5458 5454 5451 5448 5445 5443 5441 5439 5437 5435 5433 5431 5430 5428 5426 5425 5423 5422 5421 5420 5420 5420 5420 5420 5420 5421 5422 5424 5425 5427 5429 5432 5434